RH
87 98 98 86 69 71 83 84 76 67 58 48 40 37 28 34 37 33 32 34 36 33 30 29 30 30 24 25 27 27 27 27 26 26 29 30 31 32 31 31 30 30 32 34
100 97 95 89 73 86 86 94 85 68 65 50 45 40 32 32 31 28 30 32 34 34 31 32 32 26 28 28 30 29 29 29 31 30 28 28 26 25 24 24 26 28 31 33
98 95 92 94 84 94 97 98 81 74 68 62 46 38 29 30 32 32 30 34 36 35 32 32 28 28 30 31 32 32 32 32 31 29 28 28 26 25 24 25 27 31 34 37
100 100 100 96 90 85 96 77 78 80 83 54 49 54 40 26 33 34 35 36 35 34 33 28 29 32 33 35 34 33 33 33 30 27 25 29 33 33 32 32 33 35 36 37
95 95 100 100 85 80 80 66 85 86 63 52 51 51 38 28 27 32 31 36 33 33 32 31 33 34 36 35 36 36 35 32 31 32 37 39 39 39 38 39 40 41 44 46
100 90 98 90 92 92 84 95 83 68 53 61 47 49 34 28 33 33 33 36 36 36 33 36 35 35 35 38 37 37 36 36 39 43 44 44 46 47 48 48 49 50 53 57
93 89 94 88 97 97 99 96 83 64 66 70 43 46 34 23 33 31 33 35 37 38 36 37 35 35 38 38 40 40 42 48 49 48 49 52 54 55 56 58 59 61 62 62
96 98 99 100 86 89 100 96 57 71 74 61 49 46 28 28 29 29 30 37 39 40 37 37 35 39 39 42 44 48 53 52 51 52 52 53 54 58 61 64 66 67 67 65
99 91 93 85 71 84 98 88 56 56 64 68 53 42 35 32 35 31 32 33 38 42 41 39 38 39 43 45 51 58 55 53 51 50 52 53 57 66 72 73 74 73 70 65
87 85 83 88 96 93 80 62 58 55 66 70 57 45 40 37 36 34 30 34 39 44 44 39 39 43 45 50 63 61 57 57 58 58 59 60 61 65 68 69 69 65 56 52
69 68 83 83 84 88 71 58 54 51 53 64 65 41 36 35 36 35 35 40 44 48 41 40 43 45 49 60 67 62 62 63 65 66 67 68 71 70 64 62 57 47 47 52
72 59 70 58 56 57 55 54 51 49 54 52 50 47 40 35 35 36 40 47 49 42 44 46 44 45 57 64 69 66 66 67 68 68 73 69 64 69 73 62 51 42 53 55
64 56 77 79 63 56 56 55 52 49 46 45 52 43 37 36 34 36 46 45 46 46 48 47 43 59 62 69 74 70 69 71 74 77 76 75 73 73 81 76 47 57 60 62
60 55 53 72 65 59 56 55 54 51 52 50 48 45 40 35 34 37 42 41 43 48 50 46 59 64 66 73 73 72 74 79 76 69 71 68 62 87 81 51 59 66 67 66
76 57 50 46 48 51 54 44 47 52 48 52 49 50 49 42 37 40 41 42 47 49 46 57 61 64 66 71 73 77 85 87 74 74 83 84 95 74 50 62 67 65 70 65
85 62 61 58 49 54 53 50 49 47 49 52 56 51 44 42 42 45 47 48 45 53 54 56 62 68 69 70 79 82 79 78 78 87 95 98 85 54 62 68 70 73 67 50
75 60 56 54 56 57 55 51 49 54 56 56 56 52 51 49 39 45 53 54 54 53 56 61 62 62 64 67 67 66 74 86 93 98 99 87 56 64 64 70 76 70 50 22
57 62 55 45 46 45 40 36 36 47 53 57 56 55 47 40 44 55 57 60 56 56 51 46 47 47 52 55 71 86 96 98 100 97 66 55 63 66 70 69 44 14 8 11
62 58 42 32 33 37 37 31 29 32 34 34 37 42 45 58 64 63 60 58 54 41 31 29 31 39 44 65 73 84 97 97 73 48 58 64 68 69 48 17 9 11 18 18
56 48 43 36 44 60 40 37 41 52 55 55 56 60 65 64 63 60 56 46 35 20 14 18 26 32 39 47 49 49 64 58 52 60 66 68 57 28 12 10 18 21 16 12
64 56 37 36 46 52 55 49 57 66 52 56 64 66 67 62 58 54 48 38 17 12 15 19 22 26 32 42 46 49 48 50 57 62 63 43 19 12 14 22 24 14 13 15
42 37 36 45 62 61 54 63 61 56 53 46 50 58 59 59 57 53 37 18 14 16 19 22 25 30 39 45 47 46 48 52 58 58 36 20 14 18 28 24 14 13 15 18
50 46 50 45 51 53 54 60 61 58 60 59 63 64 65 62 53 33 19 18 20 22 25 29 33 38 42 42 42 42 48 57 56 35 22 17 21 30 26 16 14 14 17 18
65 62 62 62 61 56 54 53 58 62 67 69 69 66 54 42 31 24 22 24 26 28 30 35 37 37 35 35 41 51 58 52 36 24 18 25 29 20 15 16 18 17 14 12
69 68 67 68 69 68 64 63 67 72 70 64 59 54 45 35 29 28 30 29 27 30 33 35 34 32 34 45 56 58 50 37 24 20 28 31 22 15 14 14 16 13 12 15
72 70 72 74 72 71 68 68 67 68 57 50 49 46 38 34 34 35 32 25 25 30 33 34 33 34 42 56 57 49 36 24 24 31 30 22 17 15 15 15 11 11 12 15
Wind_Speed
43 41 44 42 38 33 19 21 17 13 10 18 15 21 17 16 16 16 13 15 17 17 15 13 8 9 6 8 9 11 11 11 12 11 9 9 10 13 15 17 18 20 21 23
36 45 41 36 35 29 24 17 21 20 15 17 19 21 19 17 20 18 16 15 16 17 13 8 9 6 6 9 9 10 11 10 9 9 10 12 15 16 17 19 21 23 25 27
37 29 39 40 38 35 32 28 19 19 17 22 25 28 19 12 20 23 16 18 15 13 10 9 6 5 7 8 8 8 9 11 11 14 16 19 20 19 20 21 23 25 27 29
27 32 36 43 38 33 34 26 21 17 18 15 12 11 29 24 19 15 16 15 12 11 10 7 6 6 7 8 10 13 14 15 17 20 22 22 19 18 19 20 23 25 26 29
26 30 30 40 38 31 30 24 22 20 18 21 22 14 9 14 14 15 16 14 11 10 9 7 6 5 8 11 13 15 17 20 23 24 23 21 19 19 20 22 24 26 29 31
22 14 26 29 31 25 28 18 6 11 14 7 20 18 15 8 6 13 18 15 11 10 10 7 5 6 9 12 15 18 21 23 25 22 20 19 19 20 21 23 24 26 29 32
24 20 28 27 31 21 30 18 2 3 4 6 7 9 21 7 11 12 10 16 13 12 11 7 5 7 9 14 18 21 23 23 21 20 20 21 22 23 24 26 29 32 35 37
22 16 30 24 36 31 25 28 8 6 4 4 7 9 4 5 9 13 12 14 15 11 9 5 7 7 13 17 21 21 21 21 21 22 23 25 27 28 30 32 34 37 41 44
22 15 29 23 28 36 22 34 22 2 3 2 6 10 13 14 10 7 14 16 16 11 8 8 7 10 16 21 20 19 20 21 23 25 27 29 30 30 31 34 38 42 45 48
18 12 25 29 22 28 24 29 17 14 3 4 4 8 10 7 4 6 14 17 17 13 10 9 10 14 19 21 17 20 21 24 27 30 32 33 34 33 35 39 42 46 50 52
23 14 26 28 25 31 30 32 22 11 9 4 1 3 4 5 5 5 9 13 13 11 10 11 14 21 24 18 19 22 25 29 31 34 36 36 35 36 41 44 51 58 53 50
23 16 32 27 17 27 30 27 29 17 6 9 5 13 16 9 5 12 12 13 10 10 13 14 20 22 20 17 22 25 29 32 35 37 38 39 39 41 44 50 60 51 47 47
27 12 20 17 22 23 32 32 27 23 20 18 7 6 8 6 6 10 12 11 14 17 17 21 20 16 17 20 25 28 31 34 36 38 40 41 46 49 50 55 53 48 46 45
29 16 20 21 20 28 29 34 32 31 22 19 24 19 14 7 12 13 17 19 20 19 22 22 14 16 19 22 25 30 34 35 37 38 41 45 48 51 58 56 48 46 46 46
26 16 19 20 21 26 34 32 34 37 37 26 30 28 25 17 17 19 21 22 22 24 24 18 18 20 21 24 29 33 34 36 39 42 46 50 51 57 52 46 45 46 46 47
19 11 14 13 19 18 25 27 29 34 37 35 34 21 16 16 16 20 24 26 23 18 20 21 21 21 24 27 29 34 37 38 41 45 49 50 57 52 46 44 45 46 47 48
21 11 12 8 12 10 11 22 22 27 32 33 33 31 27 24 23 19 17 17 17 19 18 19 21 24 27 29 32 36 38 41 45 46 49 56 52 46 43 44 46 47 48 50
25 22 13 5 10 2 12 13 19 22 23 30 31 28 23 22 21 19 18 18 18 19 22 25 26 27 28 30 34 36 39 43 45 51 52 47 44 43 44 44 45 47 50 56
20 20 11 8 14 7 9 13 16 21 23 26 29 27 22 20 18 17 17 18 21 27 29 27 26 26 30 31 33 37 40 46 49 45 42 41 42 42 43 44 46 51 56 60
21 20 18 10 4 7 7 15 18 17 16 20 19 19 19 18 15 15 18 24 29 28 25 25 25 27 29 32 36 38 41 45 41 39 38 40 42 43 43 47 51 55 59 61
22 22 19 15 7 5 9 10 14 13 10 17 20 20 18 16 15 20 27 30 28 27 27 28 29 29 31 33 37 39 40 39 36 37 38 40 41 43 46 50 53 57 58 59
18 16 13 14 8 9 14 16 16 11 9 11 12 12 13 16 22 28 31 29 28 28 29 29 29 30 32 35 37 40 39 37 37 37 38 40 42 45 48 52 54 56 57 58
12 15 10 12 8 10 8 18 17 17 12 13 13 15 19 25 29 29 27 28 28 29 29 29 30 32 34 36 37 37 37 36 36 37 39 42 44 47 50 53 54 57 56 57
17 17 15 14 15 13 11 11 12 13 14 16 20 24 27 29 27 27 27 28 29 30 30 31 33 35 37 37 37 37 36 36 37 39 41 44 46 50 52 52 54 55 55 57
14 14 16 20 20 15 14 15 17 18 19 21 25 28 26 27 27 27 28 31 32 32 33 34 34 35 34 33 35 36 36 38 39 41 43 46 49 51 51 53 55 55 55 56
20 22 23 23 20 19 20 22 23 24 25 25 25 26 26 26 27 29 32 33 34 33 33 34 33 33 32 31 33 35 37 39 42 44 46 50 51 51 53 54 54 55 54 52
Wind_Direction
191 192 201 203 210 213 224 233 242 250 266 296 293 275 286 242 244 253 258 258 259 273 276 285 280 290 267 278 296 296 302 310 318 320 330 334 329 323 320 320 315 312 308 307
195 200 201 203 208 213 214 222 234 248 261 301 294 281 272 265 255 252 260 247 252 258 268 267 292 276 295 302 306 318 325 329 330 334 340 338 331 323 316 311 309 309 310 309
196 203 205 208 209 212 223 232 237 254 269 283 300 298 290 284 266 255 256 228 240 252 253 281 269 279 303 322 330 326 332 333 328 326 327 327 323 318 312 309 309 309 309 308
193 208 192 204 209 212 220 230 249 251 282 287 301 290 287 290 279 251 231 230 238 240 257 248 256 289 324 337 335 337 335 333 330 330 329 327 323 318 313 310 310 309 308 309
195 209 205 198 211 215 224 232 239 262 273 286 285 281 287 286 283 231 223 230 223 236 225 230 258 313 340 338 337 335 334 333 332 330 329 329 326 323 320 318 316 314 313 313
199 194 209 205 203 218 219 227 242 249 267 270 283 241 284 300 322 241 228 227 220 222 219 232 288 335 331 335 338 335 333 330 331 333 334 332 327 322 317 311 307 305 303 303
196 214 208 216 207 211 213 211 252 235 227 230 262 254 256 255 285 295 251 230 222 219 220 247 311 313 333 340 334 330 331 333 337 338 335 331 327 321 316 311 307 305 305 305
186 191 195 200 213 210 208 196 183 199 203 260 253 241 280 283 275 259 219 221 226 226 230 262 282 307 331 331 327 325 326 331 334 334 332 329 326 321 317 314 312 311 312 311
183 193 188 202 218 207 204 206 212 305 283 295 241 270 285 276 279 256 210 203 213 224 231 253 274 310 324 324 318 317 322 328 331 332 331 331 328 322 317 314 313 313 313 313
173 161 197 201 204 209 220 204 207 219 229 249 272 275 258 293 294 261 215 201 206 218 239 259 286 310 316 314 307 312 320 323 325 330 332 331 327 323 321 319 318 318 318 317
177 175 180 191 200 202 200 200 208 204 221 175 303 289 324 318 236 156 162 188 205 225 250 275 294 312 310 303 300 307 313 321 327 328 326 325 323 321 323 323 324 323 319 317
182 186 176 186 198 202 209 210 214 212 205 223 253 269 294 317 186 163 173 180 209 244 265 279 305 302 299 296 294 302 314 320 321 323 323 322 321 321 321 323 324 319 317 317
178 181 153 184 208 206 215 218 222 226 235 233 197 253 312 249 226 207 178 199 227 244 260 294 298 287 289 290 288 303 312 318 322 322 322 321 320 320 317 317 322 320 318 317
197 190 194 197 209 209 213 220 223 229 231 234 238 251 280 273 246 224 211 228 240 253 276 294 277 281 283 284 292 306 315 318 320 320 321 321 321 318 317 320 320 319 318 317
190 209 202 216 217 222 227 233 229 229 234 231 250 256 259 255 236 229 233 240 250 272 285 280 281 283 286 293 303 312 312 312 318 317 315 315 316 318 318 319 319 319 318 317
193 189 195 198 205 209 223 232 235 238 240 242 246 246 234 236 238 238 241 255 273 272 281 285 287 290 297 304 306 309 310 312 314 313 311 310 314 315 318 319 318 318 317 314
201 191 190 192 203 217 244 233 235 234 234 236 240 248 252 255 258 246 246 260 271 282 288 292 298 303 307 307 305 306 309 310 307 306 306 308 313 316 318 319 318 317 314 315
215 221 225 186 173 203 245 240 232 235 234 236 243 248 248 243 243 250 261 270 279 290 301 305 306 304 303 304 304 304 304 304 299 300 306 311 314 317 318 317 315 315 318 319
210 218 197 185 201 249 247 230 229 225 236 238 242 242 236 230 241 259 270 281 295 305 307 304 301 300 300 300 301 301 300 296 301 309 313 314 315 316 317 315 319 322 321 320
203 210 213 200 196 210 245 229 224 227 235 229 226 226 232 243 255 269 285 299 306 306 308 309 307 305 304 301 300 303 302 305 311 312 314 315 317 316 316 321 322 322 321 321
205 216 220 224 238 257 232 214 207 203 247 223 224 233 244 256 276 296 307 311 313 315 315 313 310 307 304 302 302 304 307 311 313 314 316 315 314 318 321 321 322 322 321 321
217 214 213 217 216 250 226 211 208 232 225 210 218 232 252 279 300 309 309 307 309 313 312 310 307 305 303 302 305 308 310 312 313 314 313 314 317 318 320 321 322 321 321 321
214 214 217 221 223 225 220 221 229 239 245 252 261 276 291 299 300 301 303 308 311 311 310 310 308 305 304 305 306 307 310 311 312 311 312 315 317 319 321 321 322 322 322 321
218 215 221 221 233 236 231 230 236 247 261 276 285 290 293 297 299 303 306 309 311 312 312 310 308 307 305 307 309 309 308 309 309 312 314 316 318 320 322 322 321 322 324 325
230 234 240 244 248 245 246 256 260 263 273 282 286 291 295 299 302 306 311 313 313 313 311 308 306 304 305 307 306 304 307 309 312 314 315 316 319 321 321 322 323 324 326 326
264 265 256 258 258 256 257 258 261 268 280 287 292 295 297 302 307 312 314 313 312 309 307 305 306 305 304 303 303 304 308 311 313 314 316 319 321 320 321 323 324 325 325 324